Precipitable_Water
1.24 1.22 1.19 1.15 1.11 1.05 1.05 1.02 1.00 1.02 0.99 0.97 0.93 0.91 0.91 0.97 1.01 1.03 1.04 1.02 1.02 0.97 0.92 0.87 0.85 0.81 0.77 0.75 0.72 0.69 0.73 0.74 0.73 0.74 0.71 0.68 0.70 0.69 0.69 0.69 0.69 0.71 0.74 0.76 0.81 0.86 0.90 0.92 0.97 0.99 1.01 0.99 0.99 1.02 0.98 0.95 0.94 0.90 0.85 0.78 0.70 0.62 0.52 0.44 0.42 0.41 0.48 0.58 0.59 0.56 0.59 0.60 0.56 0.60 0.59 0.62 0.64 0.66 0.67 0.69 0.69 0.69 0.68 0.66 0.65
1.17 1.15 1.11 1.12 1.08 1.05 1.02 1.02 1.02 1.01 0.98 0.94 0.90 0.89 0.93 0.98 1.02 1.04 1.03 1.05 1.03 0.97 0.91 0.87 0.83 0.79 0.74 0.70 0.70 0.69 0.72 0.73 0.68 0.70 0.68 0.68 0.71 0.73 0.68 0.66 0.67 0.68 0.72 0.71 0.76 0.82 0.88 0.91 0.93 0.95 0.99 0.99 0.98 0.95 0.91 0.89 0.88 0.85 0.82 0.75 0.65 0.54 0.53 0.46 0.46 0.44 0.46 0.55 0.56 0.60 0.59 0.63 0.58 0.62 0.62 0.63 0.64 0.66 0.65 0.68 0.70 0.72 0.73 0.71 0.71
1.17 1.14 1.13 1.11 1.07 1.05 1.03 1.01 1.02 1.00 0.95 0.90 0.87 0.90 0.96 0.99 1.03 1.03 1.04 1.04 1.04 0.99 0.89 0.82 0.79 0.77 0.74 0.72 0.71 0.72 0.72 0.69 0.70 0.68 0.69 0.67 0.65 0.70 0.69 0.66 0.67 0.67 0.69 0.69 0.71 0.78 0.84 0.90 0.93 0.95 0.97 0.97 0.95 0.88 0.86 0.83 0.81 0.77 0.72 0.68 0.62 0.60 0.55 0.53 0.50 0.49 0.49 0.50 0.57 0.55 0.58 0.61 0.62 0.62 0.63 0.67 0.69 0.67 0.66 0.68 0.70 0.72 0.74 0.74 0.72
1.16 1.17 1.15 1.12 1.09 1.06 1.01 1.01 1.00 0.99 0.93 0.88 0.86 0.93 0.98 1.00 1.04 1.05 1.04 1.04 0.99 0.91 0.84 0.81 0.81 0.80 0.75 0.71 0.69 0.68 0.68 0.67 0.66 0.65 0.65 0.65 0.65 0.66 0.71 0.66 0.66 0.67 0.68 0.67 0.68 0.74 0.83 0.87 0.91 0.94 0.96 0.93 0.88 0.83 0.76 0.73 0.69 0.67 0.66 0.68 0.68 0.66 0.63 0.59 0.59 0.56 0.54 0.50 0.54 0.54 0.60 0.61 0.63 0.67 0.67 0.67 0.66 0.65 0.66 0.70 0.72 0.72 0.74 0.74 0.73
1.15 1.13 1.12 1.09 1.08 1.04 1.00 1.00 0.98 0.97 0.92 0.86 0.87 0.93 0.96 1.00 1.03 1.03 1.02 0.97 0.91 0.86 0.84 0.86 0.84 0.82 0.78 0.73 0.69 0.65 0.64 0.62 0.60 0.59 0.59 0.62 0.63 0.65 0.69 0.69 0.66 0.66 0.67 0.67 0.67 0.71 0.80 0.84 0.86 0.88 0.90 0.86 0.78 0.72 0.67 0.64 0.67 0.68 0.68 0.69 0.69 0.69 0.68 0.65 0.63 0.63 0.60 0.56 0.55 0.57 0.61 0.62 0.65 0.65 0.66 0.63 0.64 0.66 0.67 0.67 0.69 0.72 0.73 0.74 0.73
1.14 1.11 1.10 1.06 1.05 1.05 1.05 1.03 1.01 0.99 0.93 0.87 0.89 0.92 0.97 1.00 0.99 0.99 0.95 0.88 0.87 0.87 0.87 0.86 0.84 0.82 0.79 0.75 0.71 0.67 0.63 0.60 0.55 0.52 0.54 0.57 0.59 0.63 0.68 0.70 0.68 0.65 0.64 0.63 0.65 0.66 0.71 0.79 0.80 0.80 0.80 0.76 0.69 0.70 0.70 0.70 0.72 0.71 0.70 0.70 0.68 0.69 0.68 0.68 0.68 0.66 0.65 0.63 0.61 0.56 0.58 0.59 0.61 0.63 0.65 0.66 0.64 0.64 0.65 0.69 0.72 0.73 0.72 0.71 0.71
1.15 1.12 1.10 1.09 1.09 1.08 1.08 1.07 1.04 1.00 0.97 0.95 0.96 0.97 1.00 0.98 0.92 0.89 0.91 0.91 0.91 0.91 0.92 0.90 0.86 0.82 0.77 0.74 0.69 0.67 0.64 0.60 0.56 0.54 0.54 0.56 0.57 0.60 0.63 0.67 0.68 0.67 0.63 0.59 0.61 0.64 0.65 0.71 0.79 0.82 0.82 0.80 0.75 0.75 0.76 0.76 0.75 0.74 0.75 0.75 0.74 0.71 0.71 0.70 0.69 0.68 0.68 0.67 0.66 0.62 0.58 0.60 0.61 0.59 0.64 0.67 0.68 0.68 0.66 0.66 0.67 0.71 0.72 0.70 0.68
1.17 1.16 1.14 1.12 1.12 1.12 1.13 1.14 1.13 1.09 1.05 1.05 1.05 1.05 1.03 0.96 0.91 0.91 0.93 0.93 0.93 0.92 0.91 0.89 0.88 0.85 0.81 0.73 0.67 0.64 0.63 0.59 0.57 0.55 0.54 0.55 0.55 0.57 0.59 0.63 0.66 0.65 0.63 0.60 0.59 0.64 0.65 0.66 0.71 0.76 0.79 0.78 0.75 0.74 0.74 0.72 0.72 0.71 0.74 0.74 0.73 0.71 0.70 0.70 0.68 0.66 0.65 0.64 0.62 0.62 0.61 0.58 0.61 0.67 0.67 0.66 0.66 0.67 0.70 0.68 0.65 0.66 0.68 0.71 0.70
1.14 1.15 1.15 1.12 1.12 1.15 1.16 1.16 1.16 1.13 1.14 1.14 1.13 1.12 1.08 1.01 0.94 0.91 0.93 0.98 0.99 0.97 0.96 0.94 0.90 0.86 0.82 0.75 0.69 0.66 0.62 0.59 0.58 0.58 0.57 0.55 0.56 0.56 0.56 0.55 0.60 0.62 0.62 0.61 0.58 0.60 0.66 0.68 0.69 0.71 0.72 0.71 0.71 0.72 0.72 0.70 0.67 0.65 0.65 0.65 0.63 0.61 0.61 0.62 0.62 0.62 0.62 0.63 0.63 0.65 0.63 0.61 0.62 0.64 0.65 0.65 0.65 0.66 0.70 0.71 0.68 0.68 0.67 0.66 0.68
1.11 1.11 1.10 1.11 1.14 1.16 1.17 1.18 1.17 1.18 1.16 1.15 1.15 1.17 1.12 1.08 1.07 1.03 1.02 1.03 1.02 1.02 0.99 1.00 0.96 0.91 0.84 0.76 0.70 0.68 0.66 0.65 0.61 0.60 0.61 0.61 0.59 0.58 0.58 0.56 0.56 0.60 0.61 0.63 0.63 0.63 0.65 0.68 0.69 0.68 0.68 0.68 0.68 0.67 0.67 0.66 0.66 0.65 0.65 0.63 0.61 0.60 0.59 0.59 0.59 0.61 0.62 0.61 0.62 0.63 0.60 0.60 0.64 0.67 0.67 0.69 0.72 0.74 0.73 0.70 0.66 0.68 0.67 0.64 0.66
1.11 1.11 1.07 1.13 1.15 1.14 1.14 1.16 1.16 1.16 1.19 1.19 1.19 1.19 1.14 1.12 1.10 1.08 1.06 1.05 1.04 1.05 1.06 1.05 1.01 0.94 0.85 0.77 0.71 0.68 0.68 0.66 0.65 0.63 0.62 0.61 0.61 0.62 0.60 0.59 0.58 0.60 0.63 0.65 0.66 0.68 0.69 0.70 0.72 0.72 0.71 0.68 0.67 0.64 0.63 0.63 0.63 0.63 0.63 0.64 0.65 0.62 0.60 0.59 0.60 0.62 0.61 0.61 0.63 0.63 0.61 0.62 0.67 0.71 0.71 0.73 0.75 0.73 0.71 0.70 0.69 0.67 0.63 0.60 0.58
1.09 1.05 1.06 1.10 1.10 1.10 1.11 1.12 1.13 1.14 1.15 1.15 1.17 1.16 1.14 1.13 1.10 1.08 1.06 1.03 1.03 1.06 1.05 1.06 1.02 0.95 0.88 0.81 0.75 0.72 0.70 0.69 0.68 0.66 0.65 0.64 0.62 0.63 0.63 0.62 0.63 0.64 0.67 0.68 0.69 0.70 0.70 0.70 0.70 0.70 0.69 0.67 0.66 0.63 0.62 0.61 0.60 0.60 0.60 0.61 0.62 0.62 0.64 0.63 0.62 0.62 0.62 0.61 0.62 0.62 0.64 0.65 0.69 0.72 0.72 0.74 0.74 0.73 0.73 0.72 0.70 0.66 0.63 0.61 0.61
1.07 1.06 1.05 1.04 1.03 1.04 1.05 1.06 1.06 1.06 1.07 1.10 1.12 1.12 1.09 1.06 1.04 1.02 1.01 1.02 1.02 1.01 1.03 1.00 0.96 0.96 0.89 0.79 0.72 0.69 0.68 0.71 0.73 0.72 0.69 0.66 0.66 0.65 0.64 0.65 0.65 0.67 0.68 0.68 0.67 0.67 0.67 0.67 0.68 0.68 0.67 0.65 0.65 0.65 0.64 0.63 0.63 0.64 0.65 0.64 0.64 0.65 0.66 0.68 0.70 0.71 0.71 0.66 0.64 0.65 0.66 0.69 0.71 0.74 0.77 0.77 0.79 0.73 0.73 0.70 0.69 0.68 0.67 0.65 0.66
1.03 1.02 1.04 1.04 1.04 1.04 1.04 1.04 1.03 1.03 1.05 1.07 1.08 1.06 1.03 1.00 0.98 0.98 0.98 0.99 0.98 0.99 0.99 0.92 0.90 0.90 0.88 0.81 0.74 0.69 0.67 0.68 0.71 0.74 0.75 0.73 0.71 0.69 0.70 0.68 0.67 0.66 0.67 0.67 0.67 0.66 0.66 0.65 0.65 0.65 0.67 0.67 0.68 0.67 0.67 0.68 0.69 0.70 0.71 0.72 0.72 0.72 0.73 0.74 0.75 0.76 0.77 0.75 0.73 0.69 0.75 0.78 0.76 0.80 0.85 0.85 0.78 0.75 0.74 0.71 0.73 0.72 0.72 0.73 0.77
0.97 0.96 0.96 0.97 0.97 0.97 0.97 0.98 0.98 0.96 0.98 0.98 0.98 0.96 0.95 0.93 0.92 0.92 0.94 0.94 0.94 0.93 0.90 0.85 0.83 0.84 0.85 0.84 0.79 0.73 0.68 0.67 0.68 0.70 0.74 0.77 0.79 0.77 0.75 0.73 0.71 0.71 0.71 0.71 0.71 0.71 0.72 0.72 0.71 0.69 0.70 0.70 0.71 0.72 0.72 0.74 0.75 0.76 0.77 0.77 0.79 0.80 0.80 0.79 0.79 0.81 0.81 0.81 0.80 0.81 0.85 0.88 0.87 0.91 0.92 0.91 0.89 0.87 0.85 0.81 0.81 0.80 0.81 0.81 0.78
0.90 0.90 0.90 0.89 0.89 0.90 0.92 0.94 0.94 0.94 0.93 0.93 0.93 0.91 0.91 0.90 0.88 0.89 0.91 0.92 0.93 0.92 0.90 0.87 0.84 0.83 0.83 0.82 0.80 0.77 0.75 0.73 0.72 0.71 0.72 0.75 0.79 0.81 0.81 0.79 0.76 0.74 0.74 0.75 0.75 0.76 0.77 0.76 0.75 0.74 0.75 0.76 0.77 0.77 0.79 0.80 0.79 0.78 0.78 0.80 0.81 0.83 0.83 0.84 0.84 0.85 0.85 0.86 0.87 0.88 0.91 0.94 0.94 0.94 0.95 0.93 0.92 0.92 0.90 0.87 0.84 0.81 0.76 0.71 0.67
0.82 0.83 0.83 0.83 0.83 0.84 0.86 0.88 0.89 0.89 0.90 0.89 0.89 0.88 0.88 0.89 0.91 0.92 0.90 0.89 0.88 0.88 0.88 0.86 0.85 0.84 0.84 0.85 0.84 0.83 0.81 0.81 0.79 0.78 0.77 0.77 0.79 0.80 0.81 0.82 0.82 0.82 0.83 0.83 0.82 0.81 0.81 0.80 0.79 0.78 0.78 0.79 0.81 0.81 0.81 0.81 0.80 0.78 0.78 0.78 0.80 0.81 0.80 0.83 0.84 0.85 0.85 0.85 0.87 0.88 0.90 0.92 0.92 0.92 0.94 0.95 0.92 0.93 0.89 0.83 0.79 0.80 0.75 0.69 0.70
0.75 0.76 0.76 0.76 0.76 0.77 0.79 0.80 0.81 0.82 0.82 0.82 0.82 0.84 0.84 0.84 0.84 0.88 0.87 0.87 0.87 0.89 0.88 0.84 0.85 0.83 0.82 0.81 0.83 0.84 0.85 0.85 0.85 0.85 0.85 0.85 0.85 0.85 0.84 0.83 0.83 0.84 0.86 0.88 0.88 0.88 0.89 0.87 0.87 0.86 0.83 0.82 0.83 0.82 0.83 0.83 0.81 0.82 0.81 0.79 0.78 0.78 0.81 0.84 0.85 0.87 0.88 0.89 0.90 0.91 0.92 0.92 0.91 0.91 0.91 0.91 0.91 0.90 0.84 0.75 0.77 0.76 0.70 0.65 0.60
0.70 0.70 0.71 0.71 0.70 0.70 0.71 0.71 0.72 0.74 0.76 0.77 0.78 0.78 0.79 0.80 0.81 0.81 0.80 0.79 0.79 0.81 0.87 0.85 0.85 0.84 0.83 0.83 0.82 0.82 0.81 0.81 0.80 0.80 0.81 0.81 0.83 0.85 0.85 0.84 0.84 0.85 0.87 0.88 0.91 0.92 0.92 0.93 0.92 0.91 0.90 0.89 0.88 0.86 0.86 0.86 0.85 0.85 0.84 0.83 0.81 0.80 0.83 0.88 0.86 0.86 0.86 0.85 0.86 0.88 0.87 0.88 0.87 0.85 0.83 0.82 0.81 0.81 0.79 0.76 0.73 0.66 0.63 0.63 0.59
0.70 0.70 0.68 0.68 0.68 0.67 0.68 0.67 0.68 0.68 0.68 0.69 0.71 0.71 0.73 0.73 0.73 0.73 0.72 0.73 0.71 0.73 0.73 0.72 0.73 0.74 0.76 0.77 0.76 0.76 0.75 0.74 0.73 0.72 0.72 0.72 0.73 0.74 0.74 0.71 0.71 0.73 0.75 0.77 0.78 0.83 0.88 0.92 0.96 0.98 0.98 0.97 0.95 0.93 0.92 0.92 0.90 0.90 0.90 0.85 0.83 0.82 0.92 0.94 0.92 0.89 0.87 0.86 0.83 0.81 0.79 0.79 0.78 0.78 0.76 0.75 0.73 0.72 0.73 0.71 0.68 0.65 0.62 0.61 0.61
0.70 0.69 0.69 0.68 0.68 0.68 0.68 0.68 0.66 0.67 0.67 0.67 0.67 0.66 0.66 0.65 0.65 0.64 0.63 0.63 0.62 0.62 0.62 0.63 0.63 0.63 0.64 0.65 0.65 0.66 0.66 0.65 0.66 0.66 0.66 0.66 0.67 0.67 0.68 0.66 0.66 0.66 0.66 0.67 0.68 0.69 0.72 0.77 0.83 0.88 0.93 0.95 0.94 0.94 0.94 0.95 0.95 0.95 0.95 0.93 0.93 0.95 0.95 0.90 0.87 0.87 0.84 0.82 0.80 0.78 0.77 0.75 0.74 0.73 0.72 0.71 0.70 0.70 0.71 0.72 0.71 0.71 0.67 0.64 0.64
0.71 0.70 0.68 0.68 0.68 0.68 0.69 0.69 0.68 0.67 0.67 0.66 0.65 0.64 0.65 0.64 0.64 0.63 0.63 0.62 0.61 0.60 0.60 0.59 0.59 0.59 0.60 0.61 0.60 0.60 0.61 0.59 0.58 0.58 0.58 0.58 0.59 0.59 0.59 0.59 0.59 0.59 0.59 0.60 0.61 0.63 0.65 0.68 0.70 0.73 0.76 0.81 0.87 0.89 0.90 0.91 0.95 0.96 0.96 0.98 0.98 0.95 0.92 0.91 0.88 0.85 0.84 0.81 0.78 0.75 0.73 0.72 0.70 0.70 0.70 0.69 0.68 0.68 0.69 0.70 0.71 0.74 0.78 0.79 0.75
0.71 0.70 0.69 0.67 0.66 0.67 0.67 0.67 0.66 0.66 0.65 0.64 0.62 0.61 0.61 0.60 0.60 0.60 0.59 0.58 0.58 0.57 0.57 0.57 0.57 0.56 0.57 0.58 0.58 0.58 0.58 0.58 0.56 0.55 0.54 0.54 0.54 0.54 0.55 0.55 0.55 0.56 0.55 0.54 0.56 0.57 0.60 0.61 0.64 0.66 0.66 0.68 0.73 0.78 0.83 0.88 0.90 0.91 0.94 0.96 0.97 0.96 0.94 0.91 0.89 0.86 0.83 0.81 0.77 0.73 0.72 0.71 0.68 0.67 0.66 0.65 0.66 0.67 0.68 0.70 0.72 0.74 0.78 0.81 0.80
0.71 0.70 0.69 0.69 0.69 0.68 0.67 0.66 0.66 0.65 0.64 0.63 0.61 0.59 0.59 0.59 0.59 0.58 0.58 0.56 0.55 0.54 0.54 0.54 0.53 0.52 0.51 0.52 0.53 0.54 0.54 0.54 0.54 0.52 0.52 0.53 0.53 0.53 0.53 0.54 0.55 0.55 0.55 0.55 0.57 0.58 0.59 0.60 0.61 0.61 0.61 0.62 0.64 0.67 0.72 0.76 0.80 0.85 0.89 0.93 0.95 0.95 0.93 0.91 0.88 0.86 0.84 0.81 0.76 0.73 0.71 0.70 0.68 0.65 0.65 0.66 0.68 0.68 0.69 0.71 0.73 0.75 0.75 0.76 0.76
0.67 0.66 0.66 0.66 0.66 0.66 0.65 0.65 0.64 0.63 0.62 0.61 0.58 0.58 0.57 0.58 0.56 0.57 0.56 0.55 0.54 0.52 0.52 0.52 0.51 0.50 0.50 0.50 0.50 0.50 0.51 0.50 0.50 0.50 0.49 0.49 0.48 0.49 0.48 0.48 0.49 0.49 0.49 0.50 0.51 0.52 0.52 0.52 0.53 0.54 0.55 0.56 0.56 0.57 0.58 0.62 0.67 0.71 0.76 0.81 0.86 0.88 0.88 0.86 0.83 0.81 0.76 0.73 0.71 0.70 0.68 0.67 0.67 0.68 0.68 0.67 0.67 0.69 0.68 0.70 0.73 0.73 0.72 0.68 0.64
0.58 0.57 0.57 0.57 0.56 0.57 0.57 0.57 0.57 0.58 0.57 0.57 0.55 0.54 0.53 0.52 0.51 0.51 0.51 0.50 0.49 0.48 0.47 0.47 0.46 0.46 0.45 0.45 0.45 0.45 0.46 0.46 0.46 0.46 0.46 0.46 0.45 0.44 0.43 0.43 0.42 0.42 0.43 0.44 0.45 0.46 0.46 0.46 0.46 0.46 0.46 0.47 0.49 0.49 0.49 0.50 0.52 0.56 0.61 0.67 0.72 0.75 0.78 0.78 0.77 0.73 0.68 0.67 0.67 0.66 0.66 0.68 0.68 0.68 0.67 0.67 0.66 0.65 0.66 0.67 0.66 0.64 0.62 0.59 0.56
0.57 0.56 0.56 0.55 0.55 0.55 0.53 0.52 0.52 0.53 0.53 0.53 0.53 0.52 0.51 0.49 0.48 0.46 0.45 0.44 0.43 0.42 0.41 0.40 0.39 0.38 0.37 0.37 0.37 0.37 0.37 0.38 0.38 0.39 0.40 0.39 0.39 0.38 0.38 0.37 0.37 0.37 0.37 0.39 0.39 0.40 0.40 0.41 0.41 0.41 0.41 0.42 0.42 0.43 0.44 0.45 0.46 0.46 0.47 0.50 0.55 0.61 0.67 0.70 0.70 0.67 0.66 0.66 0.65 0.65 0.66 0.66 0.67 0.65 0.62 0.61 0.61 0.64 0.66 0.66 0.63 0.60 0.59 0.58 0.57
0.54 0.53 0.53 0.53 0.52 0.52 0.51 0.50 0.50 0.49 0.49 0.49 0.47 0.46 0.46 0.44 0.42 0.41 0.39 0.39 0.37 0.36 0.36 0.35 0.35 0.34 0.34 0.34 0.34 0.34 0.33 0.34 0.35 0.35 0.35 0.35 0.35 0.35 0.35 0.34 0.33 0.33 0.32 0.33 0.35 0.36 0.36 0.37 0.37 0.38 0.39 0.39 0.40 0.42 0.43 0.44 0.44 0.45 0.45 0.46 0.48 0.52 0.57 0.63 0.67 0.68 0.69 0.69 0.67 0.66 0.64 0.63 0.60 0.59 0.60 0.59 0.60 0.62 0.62 0.59 0.58 0.58 0.61 0.60 0.57
0.52 0.50 0.49 0.48 0.47 0.47 0.47 0.46 0.46 0.45 0.45 0.46 0.46 0.45 0.43 0.42 0.42 0.42 0.44 0.43 0.40 0.37 0.36 0.36 0.36 0.36 0.35 0.34 0.32 0.31 0.32 0.32 0.34 0.36 0.36 0.36 0.35 0.34 0.33 0.33 0.33 0.33 0.33 0.34 0.33 0.34 0.34 0.33 0.33 0.33 0.33 0.33 0.33 0.35 0.37 0.39 0.40 0.43 0.46 0.48 0.50 0.51 0.54 0.56 0.56 0.58 0.60 0.63 0.62 0.61 0.60 0.58 0.57 0.57 0.56 0.55 0.57 0.59 0.60 0.58 0.59 0.59 0.58 0.56 0.52
0.47 0.46 0.46 0.46 0.46 0.45 0.45 0.45 0.44 0.44 0.43 0.43 0.43 0.44 0.46 0.45 0.44 0.42 0.41 0.43 0.42 0.41 0.40 0.37 0.37 0.37 0.36 0.36 0.37 0.33 0.32 0.34 0.36 0.36 0.36 0.35 0.35 0.35 0.35 0.35 0.35 0.35 0.35 0.36 0.36 0.33 0.32 0.31 0.31 0.31 0.31 0.31 0.31 0.32 0.35 0.37 0.38 0.38 0.41 0.46 0.50 0.52 0.53 0.55 0.56 0.57 0.58 0.57 0.57 0.56 0.54 0.53 0.51 0.51 0.51 0.52 0.55 0.54 0.55 0.54 0.55 0.55 0.52 0.50 0.48
0.45 0.45 0.45 0.44 0.44 0.45 0.45 0.44 0.44 0.43 0.43 0.42 0.42 0.41 0.41 0.43 0.44 0.43 0.42 0.42 0.41 0.40 0.40 0.39 0.39 0.38 0.36 0.35 0.36 0.38 0.38 0.37 0.37 0.36 0.35 0.35 0.34 0.35 0.35 0.35 0.36 0.37 0.37 0.36 0.34 0.33 0.32 0.31 0.31 0.32 0.32 0.32 0.32 0.33 0.35 0.37 0.40 0.42 0.42 0.46 0.49 0.51 0.52 0.54 0.56 0.57 0.55 0.54 0.53 0.51 0.49 0.46 0.45 0.47 0.50 0.54 0.53 0.55 0.57 0.58 0.55 0.52 0.49 0.47 0.45
0.43 0.44 0.44 0.44 0.44 0.44 0.44 0.44 0.43 0.42 0.41 0.41 0.40 0.39 0.38 0.37 0.39 0.41 0.41 0.40 0.40 0.39 0.38 0.38 0.37 0.36 0.36 0.36 0.36 0.36 0.37 0.37 0.36 0.36 0.35 0.34 0.34 0.34 0.35 0.35 0.36 0.37 0.37 0.37 0.33 0.32 0.33 0.32 0.32 0.32 0.33 0.32 0.33 0.35 0.37 0.39 0.42 0.44 0.45 0.45 0.47 0.51 0.52 0.52 0.55 0.55 0.53 0.52 0.50 0.49 0.49 0.48 0.48 0.50 0.56 0.56 0.54 0.53 0.53 0.50 0.49 0.48 0.47 0.46 0.45
0.43 0.42 0.42 0.42 0.42 0.42 0.42 0.41 0.41 0.40 0.39 0.38 0.37 0.36 0.34 0.33 0.32 0.33 0.37 0.38 0.38 0.37 0.36 0.36 0.36 0.36 0.37 0.37 0.37 0.35 0.34 0.35 0.35 0.36 0.36 0.35 0.34 0.35 0.35 0.36 0.37 0.39 0.38 0.35 0.33 0.32 0.33 0.33 0.32 0.33 0.34 0.34 0.36 0.38 0.39 0.41 0.43 0.44 0.46 0.45 0.45 0.48 0.51 0.52 0.54 0.53 0.52 0.52 0.52 0.50 0.50 0.56 0.60 0.61 0.58 0.57 0.56 0.52 0.50 0.46 0.46 0.45 0.44 0.43 0.45
0.42 0.42 0.42 0.41 0.40 0.40 0.40 0.39 0.38 0.37 0.37 0.36 0.35 0.33 0.33 0.32 0.32 0.32 0.32 0.33 0.34 0.35 0.36 0.36 0.36 0.37 0.37 0.37 0.36 0.36 0.36 0.35 0.35 0.35 0.36 0.36 0.35 0.36 0.36 0.36 0.39 0.39 0.38 0.35 0.34 0.33 0.34 0.33 0.34 0.34 0.35 0.36 0.37 0.38 0.38 0.40 0.43 0.45 0.46 0.47 0.47 0.47 0.48 0.50 0.49 0.49 0.49 0.48 0.47 0.48 0.51 0.53 0.54 0.52 0.51 0.51 0.49 0.46 0.45 0.45 0.45 0.44 0.45 0.47 0.45
0.40 0.39 0.39 0.38 0.38 0.37 0.37 0.37 0.36 0.35 0.35 0.34 0.33 0.32 0.32 0.32 0.32 0.31 0.31 0.30 0.30 0.30 0.31 0.34 0.36 0.36 0.35 0.36 0.36 0.36 0.36 0.36 0.35 0.35 0.35 0.36 0.36 0.36 0.36 0.35 0.34 0.36 0.38 0.38 0.37 0.35 0.34 0.34 0.34 0.35 0.37 0.37 0.38 0.38 0.38 0.41 0.43 0.44 0.46 0.48 0.47 0.47 0.46 0.45 0.45 0.45 0.45 0.45 0.45 0.48 0.53 0.55 0.55 0.54 0.52 0.49 0.49 0.48 0.47 0.48 0.50 0.50 0.48 0.46 0.45
0.36 0.36 0.36 0.36 0.36 0.36 0.36 0.36 0.36 0.35 0.34 0.34 0.33 0.33 0.32 0.32 0.31 0.31 0.32 0.32 0.32 0.31 0.32 0.33 0.34 0.36 0.36 0.36 0.36 0.35 0.35 0.35 0.35 0.35 0.35 0.35 0.35 0.36 0.32 0.32 0.32 0.34 0.35 0.38 0.38 0.38 0.38 0.37 0.36 0.37 0.38 0.39 0.40 0.40 0.41 0.42 0.43 0.44 0.48 0.49 0.47 0.47 0.45 0.43 0.42 0.41 0.42 0.44 0.45 0.48 0.52 0.55 0.57 0.57 0.55 0.53 0.52 0.51 0.51 0.50 0.48 0.47 0.47 0.46 0.45
0.35 0.36 0.35 0.35 0.35 0.36 0.36 0.37 0.36 0.36 0.35 0.34 0.34 0.33 0.32 0.32 0.32 0.32 0.32 0.32 0.32 0.32 0.32 0.33 0.33 0.33 0.34 0.34 0.35 0.34 0.35 0.34 0.34 0.34 0.35 0.36 0.36 0.36 0.35 0.35 0.35 0.36 0.37 0.39 0.40 0.41 0.40 0.40 0.41 0.41 0.42 0.42 0.43 0.43 0.43 0.44 0.44 0.45 0.49 0.50 0.49 0.46 0.44 0.43 0.43 0.44 0.45 0.47 0.50 0.53 0.54 0.54 0.54 0.55 0.55 0.52 0.50 0.49 0.48 0.48 0.48 0.47 0.46 0.44 0.42
0.36 0.36 0.36 0.37 0.36 0.36 0.36 0.36 0.36 0.36 0.35 0.35 0.34 0.33 0.32 0.32 0.31 0.31 0.31 0.31 0.32 0.32 0.31 0.31 0.31 0.30 0.28 0.29 0.33 0.32 0.32 0.33 0.33 0.33 0.35 0.35 0.36 0.35 0.36 0.37 0.38 0.38 0.39 0.41 0.43 0.43 0.42 0.44 0.46 0.45 0.46 0.48 0.48 0.48 0.46 0.46 0.46 0.46 0.47 0.47 0.46 0.45 0.47 0.50 0.51 0.51 0.51 0.51 0.52 0.53 0.53 0.52 0.52 0.53 0.53 0.50 0.50 0.49 0.48 0.47 0.45 0.43 0.42 0.42 0.42
0.36 0.37 0.37 0.37 0.36 0.36 0.36 0.36 0.36 0.36 0.35 0.35 0.34 0.33 0.32 0.31 0.31 0.31 0.31 0.32 0.31 0.31 0.31 0.31 0.30 0.30 0.30 0.31 0.31 0.32 0.31 0.29 0.28 0.28 0.30 0.32 0.35 0.37 0.37 0.37 0.39 0.40 0.41 0.43 0.45 0.45 0.45 0.46 0.47 0.49 0.49 0.49 0.51 0.52 0.52 0.51 0.51 0.52 0.52 0.50 0.48 0.48 0.49 0.52 0.52 0.51 0.50 0.49 0.49 0.49 0.48 0.47 0.48 0.47 0.48 0.48 0.48 0.46 0.45 0.44 0.43 0.42 0.41 0.40 0.39
0.35 0.36 0.36 0.37 0.37 0.37 0.35 0.35 0.35 0.35 0.35 0.34 0.33 0.33 0.32 0.31 0.31 0.31 0.32 0.32 0.31 0.31 0.31 0.30 0.30 0.30 0.32 0.32 0.31 0.32 0.30 0.29 0.30 0.30 0.30 0.31 0.33 0.36 0.37 0.37 0.38 0.40 0.42 0.44 0.46 0.47 0.47 0.48 0.47 0.47 0.49 0.50 0.51 0.52 0.53 0.53 0.54 0.54 0.53 0.52 0.50 0.47 0.49 0.48 0.49 0.46 0.45 0.46 0.47 0.48 0.47 0.48 0.49 0.49 0.47 0.46 0.44 0.43 0.42 0.41 0.41 0.41 0.40 0.39 0.37
0.35 0.35 0.35 0.35 0.36 0.37 0.37 0.35 0.34 0.34 0.35 0.34 0.34 0.33 0.32 0.32 0.32 0.32 0.33 0.33 0.32 0.32 0.31 0.31 0.31 0.32 0.33 0.33 0.34 0.34 0.33 0.31 0.32 0.32 0.32 0.32 0.32 0.34 0.36 0.38 0.39 0.40 0.42 0.44 0.45 0.46 0.47 0.47 0.47 0.47 0.47 0.47 0.49 0.51 0.54 0.55 0.54 0.53 0.51 0.50 0.48 0.48 0.49 0.49 0.49 0.49 0.49 0.50 0.49 0.49 0.49 0.48 0.47 0.44 0.42 0.41 0.41 0.40 0.40 0.40 0.39 0.39 0.38 0.37 0.35
0.34 0.33 0.34 0.34 0.35 0.35 0.36 0.36 0.36 0.36 0.36 0.35 0.34 0.34 0.34 0.33 0.33 0.32 0.32 0.32 0.32 0.32 0.32 0.32 0.33 0.34 0.34 0.34 0.34 0.35 0.34 0.34 0.34 0.33 0.33 0.34 0.34 0.35 0.36 0.38 0.40 0.42 0.43 0.44 0.45 0.46 0.46 0.46 0.46 0.47 0.48 0.48 0.49 0.50 0.52 0.54 0.52 0.51 0.50 0.51 0.52 0.53 0.52 0.52 0.51 0.50 0.50 0.49 0.49 0.48 0.47 0.45 0.44 0.42 0.41 0.40 0.39 0.39 0.38 0.38 0.37 0.36 0.35 0.34 0.33
0.34 0.33 0.33 0.34 0.33 0.32 0.32 0.35 0.37 0.37 0.37 0.36 0.35 0.35 0.35 0.34 0.34 0.33 0.33 0.32 0.32 0.32 0.32 0.32 0.32 0.34 0.34 0.35 0.35 0.35 0.34 0.34 0.34 0.34 0.34 0.35 0.36 0.37 0.38 0.39 0.41 0.42 0.44 0.45 0.46 0.46 0.45 0.46 0.46 0.46 0.48 0.49 0.50 0.51 0.52 0.54 0.56 0.55 0.53 0.51 0.50 0.50 0.50 0.50 0.50 0.50 0.50 0.48 0.46 0.45 0.43 0.42 0.41 0.40 0.39 0.39 0.38 0.37 0.36 0.35 0.34 0.34 0.33 0.33 0.33
0.34 0.33 0.33 0.33 0.32 0.31 0.32 0.33 0.34 0.36 0.36 0.35 0.35 0.35 0.34 0.34 0.35 0.35 0.34 0.33 0.33 0.34 0.34 0.33 0.33 0.34 0.35 0.36 0.36 0.35 0.34 0.34 0.34 0.34 0.35 0.36 0.37 0.38 0.39 0.40 0.41 0.42 0.43 0.44 0.44 0.45 0.45 0.44 0.45 0.47 0.49 0.50 0.52 0.53 0.53 0.53 0.54 0.54 0.53 0.51 0.49 0.49 0.49 0.49 0.49 0.48 0.47 0.45 0.43 0.42 0.41 0.40 0.39 0.39 0.38 0.37 0.36 0.35 0.33 0.33 0.33 0.32 0.33 0.33 0.33
0.34 0.33 0.32 0.32 0.30 0.30 0.31 0.32 0.33 0.34 0.35 0.35 0.34 0.34 0.33 0.34 0.35 0.35 0.35 0.34 0.34 0.35 0.34 0.34 0.35 0.35 0.35 0.35 0.36 0.35 0.35 0.36 0.36 0.36 0.36 0.36 0.37 0.38 0.39 0.40 0.41 0.42 0.42 0.43 0.45 0.45 0.45 0.45 0.46 0.47 0.48 0.50 0.51 0.52 0.52 0.52 0.53 0.54 0.54 0.52 0.50 0.49 0.49 0.49 0.49 0.48 0.47 0.45 0.42 0.41 0.39 0.38 0.37 0.36 0.35 0.34 0.33 0.32 0.31 0.32 0.32 0.32 0.32 0.31 0.31
0.35 0.33 0.32 0.31 0.30 0.29 0.31 0.32 0.33 0.34 0.34 0.33 0.32 0.32 0.33 0.34 0.35 0.35 0.35 0.35 0.35 0.34 0.34 0.35 0.35 0.36 0.36 0.36 0.37 0.37 0.37 0.37 0.37 0.37 0.38 0.38 0.38 0.39 0.40 0.41 0.42 0.42 0.43 0.44 0.45 0.45 0.45 0.45 0.46 0.47 0.47 0.48 0.49 0.50 0.50 0.50 0.50 0.51 0.52 0.52 0.52 0.51 0.51 0.51 0.50 0.48 0.46 0.44 0.42 0.40 0.38 0.36 0.35 0.34 0.33 0.32 0.32 0.33 0.32 0.32 0.33 0.33 0.32 0.31 0.31
0.36 0.34 0.33 0.32 0.30 0.29 0.30 0.31 0.32 0.32 0.33 0.33 0.33 0.33 0.33 0.33 0.34 0.35 0.35 0.35 0.34 0.34 0.34 0.35 0.35 0.35 0.36 0.37 0.37 0.37 0.37 0.37 0.37 0.37 0.38 0.39 0.40 0.40 0.41 0.42 0.42 0.42 0.43 0.44 0.46 0.46 0.47 0.47 0.47 0.48 0.48 0.49 0.50 0.50 0.50 0.50 0.50 0.50 0.51 0.51 0.51 0.51 0.51 0.50 0.48 0.46 0.44 0.43 0.41 0.39 0.37 0.35 0.34 0.33 0.32 0.32 0.32 0.33 0.33 0.32 0.31 0.30 0.30 0.30 0.30
0.36 0.35 0.33 0.32 0.31 0.28 0.28 0.30 0.30 0.31 0.32 0.32 0.32 0.32 0.32 0.32 0.33 0.34 0.34 0.34 0.34 0.35 0.34 0.35 0.36 0.36 0.37 0.37 0.37 0.36 0.36 0.36 0.37 0.37 0.38 0.38 0.39 0.40 0.40 0.40 0.40 0.40 0.41 0.42 0.43 0.44 0.46 0.47 0.47 0.48 0.49 0.49 0.49 0.49 0.48 0.48 0.49 0.49 0.49 0.50 0.50 0.50 0.49 0.48 0.46 0.44 0.42 0.40 0.38 0.36 0.35 0.34 0.33 0.32 0.32 0.32 0.33 0.33 0.32 0.31 0.31 0.31 0.31 0.30 0.29
0.36 0.35 0.33 0.31 0.30 0.29 0.27 0.27 0.28 0.29 0.30 0.31 0.31 0.31 0.30 0.30 0.32 0.33 0.33 0.33 0.34 0.34 0.34 0.34 0.35 0.36 0.37 0.36 0.36 0.36 0.36 0.36 0.36 0.36 0.37 0.38 0.37 0.37 0.37 0.37 0.38 0.39 0.40 0.39 0.39 0.40 0.41 0.42 0.42 0.43 0.45 0.46 0.47 0.47 0.47 0.47 0.46 0.45 0.45 0.45 0.44 0.43 0.42 0.41 0.40 0.39 0.38 0.38 0.36 0.35 0.35 0.34 0.33 0.32 0.32 0.33 0.34 0.34 0.32 0.31 0.30 0.30 0.30 0.30 0.30
0.35 0.35 0.34 0.32 0.29 0.30 0.30 0.28 0.27 0.28 0.28 0.30 0.30 0.30 0.30 0.30 0.31 0.32 0.33 0.33 0.33 0.34 0.34 0.35 0.35 0.35 0.35 0.35 0.35 0.35 0.36 0.35 0.36 0.36 0.37 0.38 0.38 0.38 0.38 0.38 0.38 0.39 0.40 0.40 0.40 0.40 0.40 0.40 0.40 0.40 0.39 0.40 0.41 0.40 0.40 0.39 0.39 0.39 0.38 0.38 0.38 0.37 0.36 0.36 0.35 0.34 0.33 0.33 0.33 0.33 0.34 0.35 0.34 0.34 0.34 0.34 0.34 0.33 0.32 0.31 0.30 0.30 0.31 0.31 0.30
0.34 0.34 0.34 0.33 0.30 0.28 0.29 0.30 0.28 0.27 0.27 0.27 0.28 0.29 0.29 0.30 0.31 0.32 0.33 0.33 0.33 0.33 0.34 0.35 0.35 0.35 0.35 0.35 0.35 0.35 0.35 0.35 0.36 0.36 0.36 0.37 0.37 0.37 0.37 0.38 0.38 0.38 0.39 0.40 0.40 0.40 0.39 0.39 0.39 0.38 0.38 0.37 0.37 0.37 0.37 0.36 0.35 0.35 0.35 0.35 0.35 0.34 0.34 0.34 0.33 0.33 0.33 0.34 0.35 0.36 0.36 0.36 0.34 0.33 0.34 0.34 0.34 0.33 0.32 0.31 0.32 0.32 0.32 0.32 0.31
Wind_Speed
21 21 21 19 18 18 18 17 16 17 16 16 15 14 14 13 12 11 10 9 9 9 9 9 9 9 9 9 9 9 9 8 8 7 7 7 7 7 7 7 7 7 7 8 8 9 10 11 11 11 10 10 11 11 10 10 11 11 11 10 8 7 7 7 7 7 7 7 7 7 8 8 8 9 9 9 10 10 10 10 10 10 10 11 11
20 20 20 19 19 18 17 17 17 17 16 16 15 15 14 13 12 11 11 10 9 9 9 9 9 9 8 8 9 9 9 9 9 8 8 8 8 8 7 7 7 7 7 8 8 9 10 10 11 11 11 11 11 11 10 11 11 11 11 10 8 8 7 7 7 7 8 8 8 8 8 9 9 10 10 10 11 11 11 11 11 11 11 11 12
18 19 19 18 18 17 17 17 17 16 16 16 15 15 14 14 13 12 11 11 10 10 10 9 9 9 8 9 9 9 10 10 10 9 9 9 8 8 8 7 7 8 8 8 8 9 10 11 11 11 11 11 11 11 11 11 11 11 11 10 9 9 9 8 8 8 8 9 9 9 10 10 10 11 11 11 12 12 12 12 12 12 12 12 12
18 18 18 18 17 17 16 17 16 16 16 16 16 15 15 14 13 13 12 11 11 10 10 10 10 9 9 9 10 10 10 10 10 10 10 10 9 9 9 8 8 8 9 9 9 9 10 11 12 12 12 12 11 11 11 11 11 11 11 11 10 10 10 10 10 10 10 10 10 11 11 11 12 12 12 12 13 13 13 13 13 14 14 13 13
17 18 18 18 17 17 16 16 16 16 16 16 16 15 15 14 14 13 13 12 11 11 10 10 10 10 10 10 10 10 10 10 10 10 11 11 10 10 10 10 9 9 10 10 9 9 10 11 12 12 12 12 11 11 11 11 11 11 11 11 11 12 12 12 12 12 12 12 12 12 12 12 13 13 13 14 14 14 15 15 15 15 15 15 15
17 18 18 17 17 17 17 17 16 16 16 16 16 15 15 14 14 14 13 13 12 11 10 10 11 10 10 10 10 10 10 10 10 10 11 11 11 11 11 10 10 10 11 11 11 10 11 11 12 12 12 12 11 11 12 12 12 12 12 12 12 13 13 14 14 14 14 14 14 14 14 14 14 15 16 16 16 16 16 16 16 17 17 17 17
16 17 17 17 16 17 17 17 17 16 16 15 15 15 14 14 13 13 13 13 13 12 11 11 10 10 10 10 10 11 11 10 10 10 11 12 12 12 12 11 11 11 12 12 12 12 11 12 12 12 12 12 12 12 12 13 13 13 14 14 14 14 15 15 15 16 16 16 15 15 16 16 16 17 17 17 17 18 18 18 18 18 18 18 18
16 16 16 16 15 16 17 17 17 17 16 16 15 15 14 13 12 13 13 13 13 13 13 12 12 11 10 10 10 11 11 11 11 11 11 12 12 13 13 13 13 13 13 13 13 13 13 12 12 12 13 13 13 13 13 14 14 14 14 14 14 15 15 15 16 16 17 17 17 17 17 18 18 18 18 18 19 19 19 19 19 19 19 20 20
14 15 15 14 15 15 16 17 17 17 17 17 16 15 14 14 13 14 14 14 14 14 14 14 14 13 12 11 11 11 11 11 11 11 11 12 12 13 13 13 14 13 13 13 13 13 14 13 13 13 13 14 14 14 14 14 14 14 14 14 15 15 15 16 16 17 17 18 18 18 18 19 19 19 19 20 21 21 20 20 21 20 20 21 21
13 13 13 13 14 15 15 15 16 16 17 18 18 17 16 16 16 16 16 17 17 18 17 16 15 14 13 13 12 12 12 11 11 11 12 12 12 13 13 13 14 14 14 13 13 14 14 14 14 14 14 15 15 15 16 16 16 16 15 16 16 16 17 17 17 17 18 19 19 19 19 20 20 21 21 22 22 21 21 21 21 21 21 22 23
13 12 12 12 13 13 14 14 14 14 15 17 18 18 17 16 16 16 16 16 17 17 18 18 16 15 14 13 12 12 12 12 12 12 12 12 13 13 13 13 14 14 14 14 14 14 15 15 15 16 16 16 16 17 17 17 17 17 17 18 18 18 19 19 19 19 19 20 20 20 21 21 22 22 22 22 23 23 23 23 23 23 23 24 25
12 12 11 11 12 12 13 13 13 13 13 14 15 15 14 14 13 13 13 13 13 13 13 14 14 14 13 13 12 12 12 12 12 12 12 12 13 13 13 13 13 14 14 15 15 15 16 16 17 17 18 18 18 18 18 18 18 19 19 20 20 21 21 21 21 21 21 21 21 22 22 22 23 23 23 24 24 24 24 24 25 25 26 27 27
11 11 10 10 10 11 11 11 11 11 11 11 12 12 12 11 11 11 10 10 10 10 10 11 12 12 13 13 12 12 12 12 12 12 12 13 14 14 14 14 14 15 15 16 16 17 17 18 19 19 19 20 20 20 20 20 20 20 21 21 22 23 23 23 23 23 23 23 23 23 24 24 24 24 25 25 25 26 26 26 27 28 28 29 29
9 10 10 10 9 9 10 10 10 10 9 10 10 10 10 9 9 9 9 8 8 8 9 10 11 12 12 13 12 12 12 12 12 12 13 14 15 16 16 16 16 16 17 17 18 18 19 20 20 21 21 22 22 22 22 22 22 22 23 23 23 24 24 24 24 25 25 25 25 25 25 26 26 26 26 26 27 27 28 28 29 30 30 30 30
9 9 10 10 9 9 9 9 9 9 9 9 9 9 9 9 9 8 8 8 8 8 9 9 10 11 12 13 13 12 13 13 14 14 14 15 16 17 18 18 18 19 19 19 20 20 20 21 22 23 23 23 24 24 24 25 25 25 26 26 26 26 26 26 26 26 27 27 27 27 27 27 27 27 27 27 28 29 30 31 31 31 31 31 31
9 9 10 9 9 9 8 8 8 8 9 9 9 9 9 8 8 8 8 8 8 8 9 9 10 11 12 13 13 14 14 15 15 16 16 17 17 18 19 19 20 20 21 21 22 22 23 23 24 24 25 26 26 26 27 27 28 28 28 29 29 29 29 28 28 29 29 29 29 30 29 29 30 30 30 30 31 32 32 33 33 32 32 32 32
9 9 9 9 8 8 8 8 8 8 8 8 9 9 9 9 9 9 9 9 9 9 10 10 11 12 13 14 15 15 16 16 17 17 18 18 19 20 20 21 21 22 23 23 24 24 24 25 26 26 27 28 28 29 30 30 30 31 31 31 31 31 31 30 31 31 31 31 32 32 32 32 32 32 33 33 33 33 33 34 34 34 33 33 33
8 8 9 8 8 8 8 7 8 8 8 8 8 9 9 9 9 10 10 10 11 11 12 12 13 14 14 15 15 16 17 18 18 19 20 20 21 21 22 22 23 23 24 25 25 26 26 27 28 28 29 30 30 31 31 32 33 33 33 33 33 33 33 32 33 33 33 33 33 33 33 33 33 34 34 34 34 34 35 36 36 35 35 35 35
8 8 9 9 9 9 9 8 8 8 8 8 8 9 9 9 10 11 11 11 12 12 12 13 14 15 16 16 17 18 19 19 20 21 21 22 22 23 23 23 24 25 26 26 27 28 28 29 29 30 31 31 31 32 33 34 34 35 35 35 35 35 34 34 34 35 35 35 34 34 34 34 34 35 35 35 36 36 37 37 38 37 37 37 36
8 8 8 9 9 9 9 9 9 9 9 9 9 9 10 11 11 12 12 13 13 14 14 15 16 17 18 19 19 20 21 21 22 23 23 23 24 24 25 25 26 27 27 28 29 29 30 31 31 32 33 33 34 34 34 35 36 36 36 36 36 36 36 36 35 35 36 36 36 36 36 36 36 36 37 37 37 38 38 38 39 39 38 37 37
9 9 9 9 9 9 9 10 10 10 10 10 11 11 12 13 13 14 14 15 15 16 17 17 18 19 20 21 22 22 23 24 24 25 26 26 26 27 28 28 29 29 30 31 31 32 32 33 34 34 35 35 36 36 37 37 37 37 37 38 38 37 37 37 37 37 37 37 38 38 38 38 38 38 38 38 38 39 39 38 38 38 37 37 36
10 10 10 10 10 10 10 10 11 11 11 12 13 14 14 15 16 16 17 18 19 19 20 20 21 21 22 23 23 24 25 26 26 27 28 29 29 30 30 31 32 33 33 34 34 35 36 36 37 37 37 38 38 38 39 39 40 40 40 40 40 39 39 40 39 39 40 40 40 40 40 39 39 39 39 39 39 38 38 37 37 36 36 36 36
11 11 11 11 11 11 11 12 13 13 14 15 16 16 17 18 19 20 20 21 22 22 22 23 23 24 24 25 26 26 27 28 28 29 30 31 32 32 33 34 35 35 36 36 37 38 38 39 39 40 40 41 41 41 41 42 42 42 43 43 43 42 42 42 42 42 42 42 42 42 41 41 41 40 40 40 40 39 38 37 36 35 34 34 33
13 12 12 12 13 13 14 14 15 16 17 17 18 19 19 20 21 22 22 23 24 24 24 25 25 26 26 27 27 28 29 30 30 31 32 33 34 34 35 36 37 37 38 39 39 40 40 41 42 42 43 43 43 44 44 44 44 45 45 45 45 45 44 44 44 44 44 44 44 43 43 43 42 42 42 41 40 39 38 37 36 35 34 33 31
14 14 14 14 15 15 16 17 17 18 19 19 20 20 21 22 22 23 23 24 25 25 26 26 27 27 28 29 29 30 31 32 32 33 34 34 35 36 37 37 38 39 40 40 41 42 42 43 43 44 44 44 45 45 45 46 46 47 47 47 47 47 47 47 46 46 46 46 46 45 45 44 43 42 42 41 40 39 38 37 36 35 34 33 31
15 15 16 16 16 17 17 18 19 19 20 20 21 22 22 23 24 24 25 25 26 26 27 27 27 28 29 29 30 31 32 33 33 34 35 35 36 37 38 38 39 40 41 41 42 43 44 44 44 45 45 45 45 46 46 47 47 48 48 48 48 49 49 49 48 48 48 48 47 47 46 44 43 42 42 41 39 38 37 36 35 34 33 32 31
16 16 17 17 18 18 19 19 20 20 21 22 22 23 24 24 25 25 26 26 26 27 27 27 28 29 29 30 31 31 32 33 33 34 35 36 37 37 38 39 40 40 41 42 42 43 44 44 45 45 45 46 46 46 46 47 47 48 48 48 49 49 50 50 49 49 49 48 48 47 46 44 43 42 42 41 39 37 36 36 35 34 32 31 30
17 17 18 18 19 19 20 20 21 21 22 22 23 23 24 24 25 25 25 26 26 27 27 28 28 29 30 30 31 31 32 32 33 34 35 36 37 38 39 39 40 41 41 42 43 44 44 45 45 45 45 45 45 45 46 46 46 47 47 48 48 49 49 49 49 49 49 48 47 46 45 44 43 43 42 40 38 36 35 35 34 32 30 29 28
18 19 19 19 20 20 21 21 21 21 22 22 23 23 24 24 25 25 25 26 26 27 28 28 29 29 30 30 31 31 32 33 34 35 36 37 38 38 39 40 40 41 42 43 44 44 44 44 44 44 44 44 44 44 45 45 45 45 46 46 47 47 48 48 48 48 48 47 46 45 44 44 43 42 41 38 37 36 35 34 33 31 30 30 30
20 20 20 20 21 21 21 21 22 22 22 23 23 24 24 24 25 26 26 27 28 28 28 29 29 30 30 31 31 32 33 34 34 35 36 37 37 38 39 39 40 40 41 42 42 43 43 43 43 43 43 44 44 44 44 44 44 44 44 44 45 45 45 45 46 46 45 45 45 44 43 43 42 41 39 37 36 35 35 33 32 31 31 31 31
20 20 21 21 21 22 22 22 23 23 24 24 24 25 25 25 25 26 27 28 29 29 29 29 29 30 30 31 31 32 33 34 35 35 36 36 37 37 37 38 38 39 40 40 40 40 41 41 41 42 42 42 43 43 43 43 44 44 43 43 43 43 43 43 43 42 42 42 42 41 41 41 40 38 36 35 34 34 33 32 31 31 31 30 30
21 21 22 22 22 22 22 23 23 24 24 25 25 25 26 26 26 26 26 27 27 28 28 28 28 29 29 30 31 31 32 33 34 35 35 35 35 35 35 35 35 35 36 36 36 37 37 38 38 39 39 40 40 41 41 41 42 42 41 41 40 40 40 39 38 38 37 36 36 36 36 36 34 33 33 32 32 32 32 31 31 30 29 29 28
21 22 22 23 23 23 23 23 24 24 24 25 25 25 26 26 26 26 26 25 25 25 26 26 27 27 28 29 30 30 31 32 32 32 32 32 31 31 31 31 31 31 31 32 33 33 34 34 35 35 36 36 37 37 38 38 38 38 38 38 37 36 36 35 34 33 32 31 31 31 30 29 29 29 29 29 29 29 29 29 28 28 27 27 26
22 22 23 23 23 23 23 23 24 24 24 24 24 24 24 24 25 25 25 25 24 24 24 25 25 26 26 27 27 28 29 29 29 29 29 29 28 28 28 28 28 28 29 29 30 31 31 32 32 33 34 34 34 35 35 35 35 35 35 35 34 33 33 32 31 30 29 29 28 27 26 25 26 26 26 26 26 26 25 25 25 24 24 24 23
22 23 23 23 23 23 23 23 23 23 23 23 23 23 23 23 23 23 23 24 24 24 24 24 24 24 24 25 25 25 26 26 26 26 25 25 26 26 26 26 26 27 27 28 28 29 30 30 30 31 31 32 32 33 33 33 33 33 33 33 32 31 31 31 30 29 28 28 26 24 23 23 23 23 23 23 23 22 22 22 21 21 21 21 20
21 22 22 22 22 22 22 22 22 22 22 22 22 21 21 22 22 22 22 22 22 23 23 23 23 23 22 23 23 23 23 23 23 23 22 23 23 23 23 24 24 25 25 26 26 27 27 28 29 29 29 30 30 30 30 31 31 31 31 31 30 30 30 29 29 27 26 25 23 22 21 20 20 20 20 20 20 20 20 20 20 20 19 19 18
20 21 21 21 21 21 21 21 21 21 21 20 20 20 20 20 20 20 21 21 21 21 21 21 21 21 21 21 21 21 21 22 21 21 20 20 21 21 21 22 22 23 24 24 25 25 25 25 26 26 27 28 28 28 28 28 28 28 28 28 27 27 26 25 24 23 22 21 20 19 18 18 17 17 18 19 19 19 19 19 19 19 18 18 17
20 20 20 21 20 20 20 20 19 19 19 19 18 18 18 18 19 19 19 19 19 19 19 19 19 19 19 19 19 19 20 20 20 19 19 19 19 20 20 20 21 22 22 23 23 23 23 23 23 24 24 25 25 25 24 24 23 23 23 23 22 22 21 20 20 19 19 19 19 18 17 17 17 17 18 18 18 19 19 19 19 18 17 17 17
20 20 20 20 19 19 19 19 18 18 18 17 17 17 17 17 17 17 17 17 17 17 17 17 17 17 17 18 18 18 18 18 18 18 18 18 18 19 19 19 20 20 21 21 21 21 21 21 22 22 22 22 21 20 19 19 18 18 18 18 18 17 17 17 17 17 17 18 18 18 17 17 17 17 17 18 18 19 19 18 18 17 17 17 17
19 18 18 18 18 18 18 17 17 17 16 16 16 16 16 16 16 16 15 15 15 15 15 15 16 16 16 17 17 17 17 17 17 17 17 18 18 18 19 19 19 20 20 20 20 20 20 20 20 20 20 19 18 16 15 15 14 14 14 14 14 13 14 15 15 15 16 17 17 16 16 15 15 15 15 15 16 17 17 17 16 16 15 15 14
17 17 17 16 16 16 16 16 16 15 15 15 15 15 14 14 14 14 14 14 14 14 14 14 15 15 15 16 16 16 16 16 16 16 17 17 17 18 18 19 19 19 20 20 19 19 19 19 19 18 18 17 15 14 12 10 9 9 9 9 9 9 11 12 13 13 14 14 14 14 14 13 13 13 13 13 13 14 15 15 14 13 12 12 11
16 15 15 15 15 15 15 15 14 14 14 13 13 13 13 13 13 13 13 13 13 13 13 13 13 13 13 14 14 14 14 14 15 15 15 16 16 17 17 18 18 19 19 18 18 18 18 18 17 16 15 14 12 10 8 6 5 5 5 5 6 7 8 10 11 11 12 12 12 12 12 12 12 12 11 11 11 11 11 12 11 11 10 10 9
14 14 14 13 13 13 13 14 13 13 12 12 12 12 12 12 12 12 12 12 12 11 11 11 12 12 12 12 12 12 13 13 14 14 15 15 15 16 16 17 17 17 17 17 17 17 17 16 15 14 13 11 8 7 6 4 3 3 2 3 4 5 7 8 9 11 11 11 11 11 11 11 11 11 10 10 9 9 9 9 9 9 9 8 8
13 13 13 12 12 12 12 12 12 11 11 11 11 11 11 11 11 11 11 11 10 10 10 10 10 10 11 11 11 12 12 13 13 14 14 15 15 15 16 16 16 16 16 16 16 16 15 14 13 12 11 8 6 5 3 2 2 2 2 2 3 5 7 8 9 10 10 10 10 10 10 10 10 10 10 9 9 9 9 8 8 8 8 8 8
12 12 11 11 11 11 10 10 10 9 9 9 10 10 10 10 10 10 10 9 9 9 9 9 10 10 10 11 11 12 12 13 14 14 15 15 15 15 15 15 15 15 15 15 15 14 13 12 11 10 8 6 5 3 3 2 3 3 3 2 3 5 6 7 8 9 9 9 10 10 10 10 9 9 9 9 9 9 9 9 9 9 8 8 8
11 11 11 10 10 9 9 8 8 8 8 8 8 8 8 8 8 8 7 7 8 8 8 9 9 10 11 11 12 13 13 14 14 15 15 15 15 15 15 14 14 14 14 14 13 12 12 12 11 9 6 5 4 3 3 3 4 4 4 4 4 4 5 6 7 7 8 8 9 9 9 9 9 9 9 9 10 10 10 10 9 9 8 8 8
11 10 10 9 9 8 8 7 7 7 7 7 7 7 7 6 6 6 6 7 7 7 8 8 9 10 11 12 13 13 14 14 14 15 14 14 14 14 14 13 13 12 12 12 11 11 11 11 10 8 5 3 2 2 2 3 3 3 5 5 5 5 5 5 5 6 6 7 7 8 8 8 8 8 8 8 8 9 9 8 8 8 8 8 8
11 10 10 9 9 8 8 7 7 7 7 6 6 6 6 5 5 5 6 6 6 7 7 8 9 10 11 12 12 13 13 13 14 14 14 13 13 13 12 12 12 11 10 10 10 10 10 10 10 7 4 2 1 1 1 2 1 2 4 5 5 5 6 5 5 5 5 6 6 6 7 7 7 7 7 7 7 7 7 7 6 6 7 7 7
12 11 10 10 9 8 8 7 7 6 6 6 6 5 5 4 4 5 6 6 6 7 7 8 9 10 10 11 11 12 13 13 13 13 13 12 11 11 10 10 10 9 9 9 9 9 8 9 8 7 4 2 1 1 1 1 1 2 4 6 7 7 7 7 7 6 6 6 6 6 6 6 6 7 6 6 6 7 6 6 5 6 6 6 7
12 11 11 10 9 9 8 7 6 6 5 5 5 4 4 4 4 5 6 6 7 7 8 8 9 9 10 10 11 12 12 12 12 12 11 10 10 9 9 9 8 8 8 8 8 8 8 7 7 7 5 2 1 1 1 1 2 3 4 5 6 6 6 7 7 7 7 7 7 6 6 6 6 7 7 7 7 6 6 6 6 6 6 6 6
12 12 11 10 9 9 8 7 7 6 5 4 4 4 4 4 5 5 6 6 7 7 8 8 9 9 10 10 10 11 11 11 11 10 10 9 9 9 8 8 8 8 7 7 7 8 8 7 7 7 5 3 2 2 2 2 3 3 2 3 4 5 5 6 6 7 7 7 7 7 7 7 7 7 7 7 7 7 7 6 7 7 7 6 6
Wind_Direction
194 195 196 197 198 197 197 200 201 203 205 206 208 210 211 213 216 220 225 230 236 241 245 249 249 249 248 248 248 247 243 241 243 243 239 237 237 235 232 230 231 233 233 230 226 223 220 217 216 216 216 216 215 216 218 220 222 223 224 231 240 238 231 231 229 225 230 237 241 242 240 240 245 249 253 257 258 261 266 271 275 279 281 284 288
193 194 194 194 195 195 197 200 200 202 206 208 211 212 215 219 222 225 229 233 237 242 245 248 249 248 247 247 247 244 241 239 240 239 237 237 235 234 233 232 233 234 233 229 224 222 219 216 214 214 215 216 216 217 218 218 220 223 226 231 236 235 232 235 236 234 237 242 246 249 247 248 253 255 258 262 261 263 268 272 275 278 280 283 286
189 190 191 191 192 194 197 200 202 204 206 209 211 213 217 222 225 227 229 233 238 243 245 246 246 245 245 247 248 245 241 239 238 238 237 237 236 234 233 235 235 233 232 230 226 224 220 217 215 216 216 216 216 218 218 219 222 225 229 233 237 237 237 240 244 244 244 247 250 254 253 254 258 260 260 263 264 265 269 272 274 277 280 282 285
188 189 189 189 192 196 198 201 204 207 209 212 213 215 220 224 226 227 229 233 238 243 244 242 241 243 247 250 251 249 245 241 238 237 237 237 237 236 236 236 237 234 232 232 230 227 224 220 218 218 218 217 218 221 222 223 226 229 232 236 240 241 242 246 251 252 253 254 254 258 258 257 260 263 263 263 266 268 271 273 275 277 280 282 285
191 192 193 194 197 201 203 204 207 211 215 216 215 218 222 224 226 227 229 232 236 240 241 241 242 246 250 252 252 250 247 242 240 239 238 237 238 238 238 238 238 236 233 233 233 231 227 224 222 220 220 221 222 224 225 225 229 233 237 241 245 247 248 251 255 259 259 258 257 259 260 259 261 264 264 265 267 269 271 273 275 276 278 280 283
195 196 198 200 202 205 207 208 211 215 219 219 218 219 221 222 225 227 229 231 235 240 243 245 248 249 251 252 250 246 243 241 241 241 239 238 237 237 239 239 238 238 236 234 234 234 232 228 226 224 223 224 226 226 227 228 233 237 242 246 249 251 253 254 257 260 261 260 259 259 260 262 264 265 265 266 268 269 271 274 275 276 277 279 281
197 199 201 203 205 208 210 213 216 218 220 220 219 219 219 221 225 227 229 232 236 240 244 246 249 250 251 251 247 242 240 239 241 242 240 239 239 239 240 241 240 238 237 236 235 236 235 232 229 227 227 229 230 231 232 234 238 242 247 250 252 253 255 256 258 260 261 262 263 262 263 265 266 268 267 267 269 271 272 273 274 275 277 278 280
198 201 203 205 209 211 213 216 218 220 220 220 219 218 218 221 225 229 232 235 238 241 243 244 245 248 251 250 246 242 239 239 241 242 241 241 241 242 243 242 241 239 238 238 237 236 236 235 234 233 233 234 235 237 239 242 245 248 251 253 254 255 257 258 259 260 262 263 265 266 266 267 268 270 270 268 268 270 271 272 273 274 276 277 279
201 203 205 208 212 214 216 218 221 223 223 222 220 219 221 226 233 237 240 242 242 242 242 242 242 245 247 247 244 241 239 239 242 244 244 243 243 245 245 243 240 239 238 238 238 237 237 237 238 238 239 240 241 243 245 247 250 252 254 255 256 257 258 259 260 261 263 264 266 267 268 269 269 270 269 268 268 270 271 271 273 274 276 277 279
205 207 209 211 213 214 216 219 223 225 226 225 224 226 232 240 244 246 247 247 247 246 245 244 243 244 245 244 242 240 239 241 243 246 248 248 247 247 246 243 240 238 238 238 238 238 238 240 241 242 243 243 244 245 247 249 251 254 256 257 259 260 261 262 262 263 265 266 267 268 268 269 269 269 269 269 269 270 271 271 273 275 277 279 281
207 209 210 211 211 212 215 219 222 225 226 227 228 231 238 243 245 247 248 248 248 247 247 243 240 239 240 239 239 238 241 246 249 249 248 249 249 247 246 244 241 239 240 240 241 241 242 243 244 245 246 246 246 247 248 250 252 256 258 259 261 262 263 264 264 265 266 267 268 268 268 269 270 269 270 270 269 270 270 271 273 275 277 279 281
204 206 207 208 210 213 216 220 222 224 224 225 226 228 232 236 240 243 244 244 242 240 238 233 230 232 236 237 238 241 245 252 254 252 251 251 248 245 244 244 244 244 245 245 246 247 247 247 248 248 249 249 249 250 252 254 256 259 261 262 262 263 264 266 266 266 266 267 268 268 269 270 270 270 270 270 270 270 271 272 274 275 276 278 281
196 199 203 206 209 212 214 216 216 218 219 219 219 221 223 229 234 236 235 235 234 230 227 227 229 234 237 238 240 244 248 252 253 254 255 254 249 245 245 248 249 249 249 249 250 250 251 252 252 252 252 252 252 254 256 258 260 262 263 264 264 264 265 266 267 268 268 268 268 269 270 270 271 272 272 271 271 271 272 274 275 276 277 278 280
190 193 195 197 198 200 202 203 204 208 212 215 217 218 221 225 229 229 226 226 227 228 230 234 237 240 240 240 242 245 248 252 254 256 257 256 252 249 250 252 253 253 253 254 254 254 254 254 255 255 254 254 255 257 259 261 262 263 264 265 266 266 266 267 268 268 269 269 269 270 271 271 272 273 273 272 272 272 273 275 277 277 278 278 280
184 186 188 189 192 193 193 195 199 202 206 210 213 217 221 224 224 221 219 222 229 234 236 239 242 243 244 244 245 248 251 255 258 259 259 258 255 253 254 256 257 257 257 257 257 257 257 256 257 257 257 258 259 260 262 263 264 265 266 266 267 267 267 268 268 269 269 270 270 270 271 272 272 273 273 273 273 274 276 277 278 278 278 279 280
179 181 183 187 191 194 196 198 201 203 205 209 213 216 220 222 223 222 224 230 237 240 240 240 243 245 246 248 250 252 256 259 261 261 262 262 259 256 256 257 258 258 258 258 258 258 258 258 259 259 260 261 261 262 264 265 266 267 267 266 267 267 267 268 268 269 269 270 271 271 272 272 273 273 273 274 275 276 278 278 278 278 278 278 279
178 180 183 188 193 197 201 204 206 208 209 212 216 220 222 225 229 233 238 242 245 248 249 248 248 249 250 252 255 256 258 261 263 264 265 265 262 260 259 259 259 260 260 260 260 260 259 259 260 261 262 263 263 263 265 266 267 268 267 267 267 266 267 268 268 268 269 269 270 271 272 272 273 273 274 274 276 277 278 278 277 277 276 277 278
186 187 190 195 200 204 207 208 209 211 214 218 221 224 227 232 238 245 250 252 253 254 255 255 254 255 255 256 257 258 259 262 264 265 266 266 264 262 262 262 262 262 262 262 262 262 261 261 261 262 263 264 265 265 265 266 268 268 268 268 267 267 268 268 268 268 269 269 270 271 272 273 273 274 274 274 275 276 277 278 278 277 276 277 278
195 196 199 204 207 210 213 214 215 217 222 226 227 230 236 244 250 254 256 257 258 257 256 255 256 257 259 260 262 262 262 263 265 266 266 266 265 263 263 263 264 264 265 265 264 264 264 263 263 263 265 266 266 266 265 266 267 268 268 268 268 268 269 269 268 269 269 270 271 272 273 273 274 275 276 276 275 276 277 278 278 277 276 277 277
205 207 210 212 214 217 220 222 225 227 229 232 236 242 249 256 259 261 261 261 262 261 260 260 260 261 263 264 265 266 266 266 267 267 267 267 267 266 265 266 266 266 267 267 266 266 266 266 265 265 266 267 267 267 266 267 268 268 268 268 268 268 269 269 268 269 269 269 270 271 272 273 274 275 276 276 276 277 277 278 277 276 275 275 275
216 217 219 221 224 227 229 231 233 235 238 244 251 257 261 263 264 264 265 266 267 268 268 268 266 266 266 266 267 268 268 268 268 269 268 269 269 268 268 268 268 268 268 268 268 268 268 268 268 268 269 269 268 268 267 267 268 268 268 268 268 268 269 268 268 269 269 269 270 271 272 273 274 275 276 276 277 277 277 277 276 275 275 274 275
223 224 225 227 230 231 234 236 238 241 248 255 261 265 268 269 269 269 269 270 271 272 272 272 271 270 270 270 269 269 270 270 270 270 270 269 269 269 269 269 269 269 269 269 270 270 270 270 270 270 270 270 270 270 269 268 268 268 268 268 268 268 268 268 268 269 269 270 270 271 272 273 274 275 275 276 276 276 276 275 274 275 275 276 277
228 231 231 232 235 238 240 242 244 249 255 260 264 268 270 271 272 273 274 274 274 274 274 274 274 273 273 272 272 272 272 272 271 271 271 271 270 270 269 270 270 270 270 270 270 270 270 270 271 271 271 271 271 270 270 269 268 268 268 268 268 268 268 268 268 269 269 269 270 270 272 273 273 274 275 275 275 274 274 273 272 273 276 277 277
230 235 237 239 242 244 246 249 253 258 262 265 268 271 272 273 273 274 275 275 275 275 275 275 274 274 274 273 273 273 274 273 273 272 272 272 271 271 270 270 270 270 271 271 271 271 271 271 271 272 272 271 271 270 270 269 268 268 268 268 268 268 268 268 269 269 269 269 270 271 272 272 273 274 274 274 273 273 272 271 271 273 274 274 273
238 243 246 247 248 249 251 255 260 264 267 269 271 273 274 275 275 275 276 276 276 276 276 276 275 275 274 274 274 274 274 274 274 274 274 273 273 272 272 272 272 272 272 272 272 272 272 272 272 272 272 271 271 271 270 270 269 269 268 268 269 269 269 269 269 269 269 270 270 271 272 272 273 273 273 272 271 271 270 270 271 272 271 271 272
248 251 253 254 255 257 259 262 265 268 270 271 272 274 275 275 276 276 277 277 278 278 277 277 277 276 276 276 276 276 276 276 276 276 276 276 276 276 275 275 274 274 274 273 274 273 273 273 273 273 273 273 272 272 271 271 271 270 269 269 269 269 269 269 268 269 269 270 270 271 271 271 271 272 271 270 269 269 269 269 269 269 269 269 270
252 254 256 257 260 262 265 268 269 271 272 273 274 275 276 277 277 277 278 278 278 278 278 278 278 278 278 278 278 279 278 278 278 278 278 278 278 278 278 277 277 276 275 275 275 275 275 275 274 274 273 273 273 272 272 271 271 270 269 269 269 269 268 268 268 268 268 269 269 270 270 269 269 269 268 268 267 267 268 268 267 266 266 265 266
257 259 261 263 265 268 270 271 272 273 274 275 276 277 278 278 278 278 279 279 279 280 280 280 281 281 281 281 281 281 281 280 280 281 281 281 280 280 279 279 278 278 277 277 277 276 276 276 275 274 274 273 273 273 272 272 271 271 270 270 269 269 268 268 267 267 268 268 268 268 268 267 267 266 266 265 265 265 266 265 264 263 262 262 264
264 266 268 269 271 272 273 273 274 274 275 276 277 278 279 279 279 279 280 280 281 281 282 282 283 283 283 282 282 282 282 282 282 283 282 282 281 281 280 280 279 279 278 278 278 277 277 276 276 275 275 274 274 274 274 273 273 272 271 271 270 269 268 267 267 267 267 267 267 267 266 265 265 264 262 262 262 263 262 261 259 259 259 262 265
266 268 269 271 272 273 273 274 275 276 277 278 279 279 279 280 280 280 281 281 282 282 282 282 283 283 283 283 282 282 282 283 283 283 283 283 282 282 281 281 280 280 280 279 279 279 278 278 277 277 276 275 275 275 274 274 274 273 272 271 270 269 268 267 267 267 267 267 266 266 266 264 263 261 259 259 259 259 258 257 257 258 260 262 265
267 269 270 272 273 274 274 275 277 278 278 279 280 280 280 280 281 282 282 282 282 282 282 281 282 282 282 283 283 282 282 283 284 285 285 284 284 283 283 283 282 282 281 281 281 280 279 279 278 278 277 276 275 275 275 275 274 273 272 271 271 270 269 269 268 268 267 267 266 265 265 263 260 258 255 255 254 254 253 254 256 258 260 262 264
269 270 272 273 274 275 275 277 278 279 279 280 280 281 281 281 281 282 283 284 283 283 283 283 283 283 283 284 284 285 285 286 287 287 286 286 286 285 285 285 284 284 283 283 282 282 281 280 280 279 278 276 276 276 275 275 274 273 273 272 271 271 270 269 269 268 268 267 266 265 263 260 257 253 251 250 249 250 251 253 255 257 259 262 264
270 271 272 273 274 275 276 278 279 280 280 280 281 282 282 282 283 284 285 285 284 283 283 284 284 285 286 286 287 288 289 290 290 289 288 287 286 286 286 286 285 286 286 285 285 284 283 282 281 280 280 279 278 277 276 275 275 274 272 271 270 270 270 269 268 267 266 266 265 264 261 256 251 249 248 247 247 248 249 251 253 256 258 261 261
271 272 274 275 275 276 277 279 281 281 281 282 282 283 283 283 284 284 285 286 285 285 285 286 287 288 289 290 291 292 292 293 293 292 291 289 288 288 288 287 287 287 288 288 288 287 286 285 283 282 282 281 280 279 278 277 275 274 272 270 270 269 269 268 266 265 264 263 262 260 257 252 248 246 244 243 244 246 247 249 252 254 255 256 255
272 273 275 275 276 277 278 279 281 282 283 283 284 284 284 284 284 284 285 286 286 287 287 288 290 291 292 292 293 294 294 295 295 295 295 294 292 291 291 290 290 291 292 292 292 291 289 287 286 285 284 283 282 281 280 278 275 273 271 270 269 268 267 265 264 262 260 258 256 254 252 248 245 242 240 239 240 242 243 246 247 248 250 251 252
275 275 275 276 277 278 279 280 282 283 284 284 284 285 285 285 284 284 285 286 287 288 289 290 291 292 293 294 295 296 297 297 298 298 298 298 297 296 295 295 295 295 296 296 296 295 294 292 290 289 287 286 285 283 281 279 276 273 271 270 269 267 265 263 260 257 254 251 249 247 245 241 237 234 233 234 237 239 241 242 243 245 247 250 252
279 278 277 277 277 278 280 281 282 283 283 283 284 284 286 286 286 286 287 288 289 289 290 291 292 293 294 297 299 299 300 300 300 300 301 301 302 302 301 301 301 300 300 300 300 300 299 298 296 295 293 290 288 285 282 280 277 273 271 270 268 266 263 259 254 249 244 241 239 237 233 229 228 230 232 234 236 238 238 240 242 245 247 250 252
280 280 279 277 276 277 279 280 281 282 282 282 283 284 286 287 288 288 288 289 290 290 290 292 294 295 297 300 302 302 302 302 301 302 303 305 306 307 307 307 306 305 305 304 304 303 302 301 301 301 300 296 292 288 284 281 277 273 270 268 266 263 258 252 246 240 235 231 229 228 227 227 230 234 235 236 237 238 239 242 245 246 248 250 251
279 279 279 277 276 275 276 277 279 281 282 282 283 284 286 287 288 289 289 289 290 291 291 293 295 296 298 300 302 303 304 305 305 306 306 307 309 310 310 310 310 309 309 308 307 305 303 303 304 305 306 304 299 294 288 282 277 273 270 266 262 257 250 242 237 234 230 227 227 228 230 230 232 235 236 238 239 240 242 243 244 245 245 247 249
277 279 280 278 276 275 275 275 277 280 281 281 281 283 285 287 288 289 290 290 291 291 291 292 294 296 298 301 303 304 304 306 307 308 308 308 309 310 311 312 312 312 312 311 310 309 307 307 307 308 307 306 304 301 294 285 277 274 269 261 255 248 240 233 230 228 226 225 224 225 225 227 229 233 236 238 238 237 238 238 239 240 242 244 247
276 278 280 281 279 278 276 274 275 277 278 279 281 282 283 286 289 290 290 291 291 291 291 292 293 295 299 302 303 304 304 306 307 308 309 309 309 309 311 312 313 314 314 314 314 313 312 311 310 310 309 307 304 303 301 291 277 268 260 249 239 232 227 223 220 218 217 216 216 215 217 221 225 227 230 231 231 231 233 234 236 237 241 243 245
274 277 280 281 281 280 277 275 273 274 275 278 281 283 284 286 289 290 290 291 291 291 292 293 294 297 301 304 305 305 306 307 309 310 311 311 311 312 313 314 316 317 317 317 318 317 316 314 313 312 312 310 305 301 300 290 271 256 246 232 223 217 214 211 209 206 205 206 208 210 213 217 220 222 224 226 228 229 230 231 232 236 239 239 239
273 275 278 281 282 281 278 274 271 271 273 277 281 284 285 286 288 289 290 291 292 294 295 297 299 301 305 308 310 310 311 312 313 314 315 315 316 317 318 319 320 321 322 322 321 319 318 316 315 314 313 309 304 299 296 284 265 250 234 219 210 202 198 198 197 196 198 203 208 210 212 214 217 220 223 226 228 228 226 227 230 233 234 235 237
272 274 276 279 281 281 278 273 269 269 272 276 279 283 285 286 288 289 290 292 294 297 299 300 303 305 308 311 313 315 316 318 318 318 319 320 320 321 323 324 325 326 326 327 327 326 324 321 319 316 312 306 301 303 300 278 252 231 205 200 200 196 193 194 196 199 205 211 212 210 212 216 219 222 225 227 227 224 223 227 232 233 233 236 241
269 272 274 275 278 279 277 272 268 268 271 275 278 282 286 288 289 290 291 293 297 299 301 303 306 309 311 313 315 316 317 318 319 320 320 321 322 322 323 325 328 329 331 333 335 336 335 332 326 320 313 304 298 303 303 280 257 238 213 197 197 196 197 201 207 212 217 219 216 215 217 220 222 224 225 225 224 224 226 231 233 233 233 238 243
265 268 269 271 272 273 272 269 267 267 271 274 277 281 287 290 291 292 293 296 299 301 303 305 308 311 313 315 316 317 317 317 318 319 319 319 319 319 321 324 328 331 334 337 339 341 342 342 339 333 324 309 295 291 290 280 259 233 210 198 194 193 196 203 211 217 220 219 217 218 221 222 223 227 229 230 230 231 233 234 234 233 235 238 242
259 262 263 264 264 265 266 266 266 266 268 271 274 281 288 291 291 292 295 299 302 304 305 307 309 312 314 315 316 316 316 316 316 316 316 316 316 316 317 321 326 330 334 337 340 343 346 348 350 350 346 329 302 285 287 287 264 223 204 200 201 202 204 208 211 215 218 218 217 218 221 224 227 229 230 231 230 228 228 228 230 232 235 238 241
253 255 257 257 257 258 259 261 261 263 265 268 273 282 288 290 291 294 299 303 307 309 309 311 313 314 315 315 315 315 316 316 316 315 315 316 316 316 316 318 322 327 332 337 342 346 349 352 354 357 360 359 348 322 304 295 266 213 205 210 216 222 226 228 223 216 211 210 211 212 213 215 217 218 217 217 217 215 215 219 224 229 235 240 246
247 249 251 252 252 251 252 254 256 258 262 266 273 280 285 286 290 298 304 308 311 313 313 314 317 318 318 318 318 318 319 319 319 319 319 319 321 321 320 321 323 326 329 335 341 347 351 354 357 359 360 355 345 343 327 287 257 235 227 228 231 234 235 234 229 221 212 210 211 211 209 210 213 213 211 209 209 211 214 220 226 233 242 250 258
243 244 246 247 247 245 244 245 248 253 258 263 271 279 282 283 289 299 305 309 313 317 319 319 321 322 322 323 324 325 325 326 326 327 326 325 325 325 325 325 327 329 330 333 339 345 349 352 355 357 357 343 297 307 328 310 279 258 243 234 232 232 232 231 228 224 221 219 218 216 214 216 217 216 213 213 215 220 226 233 238 245 255 263 268
241 241 241 241 240 238 237 238 240 245 252 259 269 278 281 282 288 299 306 310 315 321 323 324 325 326 327 329 331 333 335 336 338 339 338 336 333 330 327 325 326 328 330 332 337 344 351 355 356 356 357 349 306 276 284 289 279 265 253 241 234 231 230 228 226 222 220 220 220 220 220 222 223 223 224 227 231 235 239 245 250 255 260 263 265